Temp
-5 -5 -5 -4 -4 -4 -4 -4 -3 -3 -3 -3 -3 -3 -3 -3 -3 -3 -3 -3 -3 -3 -3 -2 -2 -2 -2 -2 -2 -3 -3 -3 -3 -4 -4 -4 -3 -5 -5 -6 -4 -4 -4 -3 -3 -3 -3
-5 -5 -5 -4 -4 -4 -4 -4 -4 -3 -3 -3 -3 -3 -3 -3 -3 -3 -3 -3 -3 -3 -3 -3 -2 -2 -2 -2 -2 -2 -3 -3 -3 -4 -4 -4 -3 -3 -4 -4 -4 -4 -5 -5 -4 -3 -4
-5 -5 -5 -5 -4 -4 -4 -4 -4 -3 -3 -3 -3 -3 -3 -3 -3 -3 -3 -3 -3 -3 -3 -3 -2 -2 -2 -2 -2 -2 -2 -3 -3 -4 -4 -4 -4 -4 -4 -5 -5 -6 -6 -5 -5 -4 -4
-5 -5 -5 -5 -5 -4 -4 -4 -4 -4 -4 -3 -3 -3 -3 -3 -3 -3 -3 -3 -3 -3 -3 -3 -2 -2 -2 -2 -2 -2 -2 -2 -2 -3 -3 -3 -4 -4 -4 -4 -6 -7 -5 -4 -4 -5 -4
-5 -5 -5 -5 -5 -4 -4 -4 -4 -4 -4 -4 -4 -3 -3 -3 -3 -3 -3 -3 -3 -3 -3 -3 -3 -2 -2 -2 -2 -2 -2 -2 -2 -2 -3 -3 -4 -4 -4 -4 -6 -5 -5 -5 -4 -5 -5
-6 -6 -6 -5 -5 -5 -4 -4 -4 -4 -4 -4 -4 -3 -3 -3 -3 -3 -3 -3 -3 -3 -3 -3 -3 -3 -3 -2 -2 -2 -2 -2 -2 -3 -3 -3 -3 -4 -4 -5 -4 -6 -5 -5 -5 -5 -4
-7 -6 -6 -6 -6 -5 -5 -5 -4 -4 -4 -4 -4 -4 -3 -3 -3 -3 -3 -3 -3 -3 -3 -3 -3 -2 -2 -3 -3 -2 -2 -2 -2 -2 -3 -3 -3 -3 -4 -4 -5 -6 -5 -5 -4 -6 -4
-7 -7 -7 -6 -6 -6 -6 -5 -5 -5 -4 -4 -4 -4 -4 -3 -3 -3 -3 -3 -3 -3 -3 -3 -3 -3 -2 -3 -3 -2 -2 -3 -3 -3 -3 -3 -3 -4 -5 -5 -5 -5 -5 -6 -7 -5 -4
-8 -7 -7 -7 -7 -6 -6 -6 -6 -5 -5 -5 -4 -4 -4 -4 -4 -4 -4 -3 -4 -3 -3 -3 -3 -3 -2 -3 -3 -3 -2 -3 -3 -3 -3 -3 -4 -6 -5 -5 -5 -5 -5 -5 -5 -4 -4
-8 -8 -8 -7 -7 -7 -7 -7 -6 -6 -6 -6 -5 -5 -4 -4 -4 -4 -4 -4 -4 -4 -3 -3 -3 -3 -2 -3 -2 -3 -3 -3 -3 -3 -3 -3 -4 -6 -7 -6 -6 -6 -5 -5 -6 -4 -5
-8 -8 -8 -8 -8 -8 -7 -7 -7 -7 -7 -6 -6 -6 -5 -5 -5 -4 -5 -4 -4 -4 -4 -3 -3 -3 -3 -3 -4 -3 -3 -3 -3 -3 -3 -4 -4 -4 -7 -7 -7 -6 -6 -6 -6 -6 -4
-8 -8 -8 -8 -8 -8 -8 -7 -7 -7 -7 -7 -7 -6 -6 -6 -6 -6 -5 -5 -6 -5 -5 -4 -3 -4 -4 -4 -4 -4 -4 -4 -4 -4 -4 -4 -5 -5 -6 -7 -6 -7 -6 -6 -6 -5 -6
-8 -8 -8 -8 -8 -8 -8 -8 -7 -7 -7 -7 -7 -7 -7 -7 -7 -7 -6 -6 -6 -5 -6 -6 -4 -5 -5 -4 -4 -4 -4 -4 -4 -4 -4 -4 -4 -7 -6 -7 -7 -7 -7 -7 -6 -6 -6
-9 -9 -8 -8 -8 -8 -8 -8 -8 -8 -8 -7 -7 -7 -7 -7 -7 -7 -7 -7 -6 -6 -6 -8 -6 -5 -5 -5 -5 -5 -5 -4 -4 -5 -5 -5 -6 -6 -8 -5 -6 -7 -7 -7 -6 -6 -5
-8 -8 -8 -8 -8 -8 -8 -8 -8 -8 -8 -8 -8 -8 -8 -8 -8 -8 -7 -7 -6 -7 -9 -8 -9 -8 -6 -6 -6 -6 -5 -5 -5 -5 -5 -7 -8 -8 -7 -7 -5 -7 -7 -7 -7 -6 -6
-8 -8 -8 -8 -8 -8 -8 -8 -8 -8 -8 -8 -8 -8 -8 -8 -8 -8 -8 -7 -7 -8 -10 -9 -9 -9 -9 -7 -6 -6 -6 -6 -5 -5 -6 -7 -8 -7 -7 -8 -7 -7 -7 -6 -6 -6 -6
-9 -9 -9 -8 -8 -8 -8 -8 -8 -8 -8 -8 -8 -8 -8 -8 -8 -8 -7 -7 -8 -8 -7 -8 -7 -9 -9 -8 -9 -9 -8 -8 -6 -6 -6 -6 -8 -7 -7 -8 -8 -8 -7 -6 -6 -5 -6
-9 -9 -9 -8 -8 -8 -8 -8 -8 -8 -9 -9 -9 -8 -8 -8 -8 -8 -8 -8 -8 -8 -8 -7 -7 -7 -9 -9 -8 -9 -9 -9 -9 -7 -7 -6 -8 -7 -7 -7 -8 -8 -7 -7 -7 -7 -5
-9 -9 -9 -9 -9 -9 -8 -8 -8 -8 -9 -9 -9 -8 -9 -9 -8 -8 -8 -8 -8 -8 -8 -7 -8 -8 -8 -9 -9 -9 -9 -9 -9 -9 -7 -8 -8 -8 -7 -7 -7 -8 -8 -8 -7 -7 -7
-10 -9 -9 -9 -9 -9 -9 -9 -8 -8 -9 -9 -9 -9 -9 -9 -9 -9 -8 -8 -8 -8 -8 -7 -8 -8 -9 -8 -9 -9 -9 -9 -9 -9 -8 -9 -9 -8 -8 -7 -7 -8 -7 -8 -8 -7 -7
-10 -10 -10 -10 -10 -10 -9 -9 -9 -9 -9 -9 -10 -10 -10 -9 -10 -9 -9 -9 -9 -8 -8 -8 -8 -8 -8 -8 -8 -9 -9 -9 -9 -9 -8 -8 -9 -9 -8 -7 -7 -7 -8 -8 -6 -7 -8
-12 -12 -12 -12 -11 -11 -11 -10 -10 -10 -10 -10 -10 -9 -8 -9 -10 -10 -10 -9 -9 -9 -9 -8 -8 -8 -8 -8 -10 -9 -9 -9 -9 -9 -8 -8 -9 -9 -9 -8 -8 -8 -8 -7 -7 -7 -7
-13 -13 -13 -12 -12 -12 -12 -12 -11 -11 -11 -11 -10 -10 -10 -11 -10 -10 -10 -10 -10 -9 -9 -9 -9 -9 -9 -9 -10 -10 -10 -9 -9 -9 -8 -8 -9 -9 -9 -8 -8 -8 -8 -8 -8 -8 -8
-14 -13 -13 -13 -13 -12 -12 -12 -12 -11 -11 -11 -11 -11 -11 -11 -11 -11 -11 -11 -10 -10 -10 -10 -10 -9 -10 -9 -9 -9 -10 -10 -9 -10 -9 -8 -10 -9 -9 -8 -8 -8 -8 -8 -8 -8 -8
-14 -13 -13 -13 -13 -13 -12 -12 -12 -12 -12 -12 -12 -11 -11 -12 -12 -12 -12 -11 -11 -11 -10 -10 -12 -9 -9 -9 -9 -10 -10 -10 -10 -10 -10 -9 -9 -9 -9 -8 -8 -9 -9 -8 -8 -8 -8
-14 -13 -13 -13 -13 -13 -13 -12 -12 -12 -12 -12 -12 -12 -12 -12 -13 -11 -11 -11 -11 -12 -11 -10 -9 -8 -8 -9 -9 -10 -10 -10 -10 -9 -10 -9 -9 -9 -9 -9 -9 -8 -9 -8 -8 -8 -8
-14 -14 -14 -14 -14 -14 -13 -13 -13 -13 -13 -13 -12 -12 -12 -13 -12 -12 -12 -11 -11 -12 -11 -10 -10 -10 -10 -10 -10 -10 -11 -11 -10 -10 -10 -10 -10 -10 -9 -9 -8 -8 -9 -9 -9 -9 -9
-15 -15 -14 -14 -14 -14 -14 -14 -14 -14 -13 -13 -13 -13 -13 -13 -12 -12 -11 -12 -12 -11 -11 -11 -11 -11 -10 -10 -11 -12 -11 -11 -10 -10 -10 -10 -9 -9 -10 -10 -10 -9 -10 -10 -10 -9 -9
-15 -15 -15 -15 -15 -15 -15 -15 -15 -14 -14 -14 -14 -14 -14 -14 -12 -12 -12 -13 -13 -13 -12 -11 -11 -11 -11 -10 -11 -12 -11 -11 -10 -10 -11 -10 -11 -10 -10 -10 -9 -9 -9 -9 -9 -9 -9
Height
5884 5886 5887 5889 5891 5893 5894 5896 5898 5899 5900 5901 5902 5903 5905 5908 5910 5913 5915 5917 5918 5920 5921 5922 5923 5923 5924 5926 5926 5927 5929 5930 5931 5932 5931 5933 5933 5931 5928 5933 5934 5939 5939 5940 5940 5939 5939
5881 5882 5883 5885 5887 5889 5891 5892 5894 5896 5897 5898 5900 5900 5903 5906 5908 5911 5914 5916 5917 5919 5921 5922 5923 5924 5925 5928 5928 5929 5930 5932 5933 5934 5934 5934 5935 5935 5930 5937 5936 5937 5941 5941 5941 5941 5942
5877 5878 5879 5881 5882 5884 5886 5888 5890 5892 5894 5896 5897 5898 5901 5903 5906 5909 5912 5915 5916 5917 5919 5921 5923 5924 5925 5928 5929 5930 5931 5932 5934 5936 5936 5935 5936 5935 5935 5936 5941 5943 5942 5943 5942 5943 5944
5872 5873 5875 5876 5878 5880 5882 5884 5886 5888 5890 5893 5895 5896 5899 5901 5903 5906 5909 5912 5915 5916 5918 5920 5921 5923 5925 5926 5928 5930 5931 5933 5934 5936 5937 5938 5938 5939 5938 5939 5941 5943 5942 5939 5941 5942 5944
5866 5868 5869 5871 5873 5875 5877 5879 5881 5883 5886 5888 5891 5893 5896 5898 5900 5903 5906 5908 5911 5914 5916 5917 5920 5922 5924 5925 5927 5929 5931 5932 5934 5935 5937 5939 5940 5940 5941 5942 5944 5944 5944 5943 5938 5944 5944
5861 5862 5863 5865 5867 5870 5872 5874 5876 5878 5881 5884 5886 5889 5892 5894 5898 5900 5902 5905 5907 5910 5912 5915 5917 5921 5922 5923 5925 5927 5930 5931 5932 5934 5936 5938 5938 5940 5942 5943 5944 5943 5944 5943 5944 5946 5945
5855 5856 5857 5859 5861 5863 5865 5868 5870 5873 5875 5878 5881 5884 5887 5890 5893 5896 5899 5901 5904 5906 5909 5912 5914 5916 5919 5922 5924 5925 5928 5930 5931 5933 5934 5935 5936 5938 5942 5940 5943 5942 5944 5946 5945 5946 5947
5849 5850 5851 5852 5854 5856 5858 5861 5864 5866 5869 5872 5875 5878 5881 5885 5888 5891 5893 5896 5900 5903 5905 5907 5910 5912 5915 5919 5920 5923 5925 5928 5930 5932 5932 5933 5935 5936 5938 5940 5942 5941 5944 5947 5948 5944 5945
5843 5844 5844 5846 5847 5849 5851 5853 5856 5858 5861 5864 5868 5871 5874 5878 5881 5884 5887 5890 5893 5896 5899 5902 5905 5908 5912 5914 5916 5919 5922 5924 5927 5928 5930 5932 5933 5935 5937 5938 5941 5941 5944 5944 5945 5943 5944
5838 5838 5838 5838 5840 5842 5844 5846 5849 5851 5853 5856 5860 5863 5866 5870 5875 5876 5880 5884 5887 5889 5893 5897 5901 5903 5905 5909 5911 5914 5918 5921 5922 5925 5927 5930 5932 5936 5936 5937 5939 5944 5938 5941 5944 5941 5943
5832 5832 5832 5832 5833 5834 5836 5839 5841 5844 5846 5849 5852 5855 5858 5861 5865 5869 5875 5876 5879 5882 5887 5889 5893 5895 5899 5904 5905 5907 5912 5914 5917 5920 5923 5927 5929 5930 5935 5936 5937 5937 5936 5940 5941 5940 5940
5826 5826 5826 5826 5826 5827 5829 5831 5833 5836 5839 5841 5844 5848 5851 5854 5857 5862 5864 5868 5871 5876 5878 5881 5884 5889 5892 5896 5898 5901 5905 5908 5912 5914 5916 5919 5924 5926 5929 5930 5932 5934 5933 5937 5938 5938 5938
5820 5820 5819 5819 5820 5820 5822 5823 5826 5828 5831 5834 5837 5840 5843 5846 5851 5854 5857 5861 5865 5867 5874 5873 5876 5882 5885 5889 5892 5893 5897 5902 5904 5908 5911 5914 5918 5922 5924 5926 5930 5935 5935 5936 5939 5936 5936
5814 5813 5813 5813 5813 5813 5814 5816 5818 5820 5823 5826 5829 5832 5836 5838 5842 5846 5849 5853 5857 5866 5868 5873 5869 5875 5879 5882 5885 5887 5889 5894 5897 5901 5905 5908 5912 5916 5917 5921 5925 5930 5933 5936 5936 5935 5932
5807 5806 5806 5805 5805 5805 5806 5808 5810 5812 5814 5818 5821 5824 5828 5831 5834 5838 5842 5844 5854 5861 5866 5869 5869 5868 5873 5875 5879 5880 5883 5888 5890 5895 5899 5905 5909 5915 5915 5915 5919 5925 5928 5932 5932 5929 5931
5798 5797 5797 5797 5797 5797 5798 5799 5801 5804 5806 5809 5812 5816 5820 5823 5827 5831 5835 5842 5847 5852 5854 5859 5866 5866 5868 5870 5872 5874 5877 5882 5884 5889 5894 5900 5908 5912 5914 5914 5913 5918 5920 5920 5926 5930 5929
5789 5788 5787 5788 5788 5789 5789 5790 5792 5795 5797 5801 5804 5807 5813 5815 5819 5824 5831 5837 5841 5842 5846 5852 5856 5861 5865 5871 5870 5871 5873 5877 5879 5883 5888 5895 5901 5910 5912 5909 5912 5914 5912 5919 5922 5922 5923
5779 5778 5778 5777 5778 5779 5780 5781 5783 5785 5788 5792 5795 5798 5804 5807 5813 5817 5824 5830 5833 5835 5840 5845 5849 5852 5858 5865 5870 5870 5872 5874 5876 5878 5881 5889 5895 5902 5906 5908 5908 5911 5916 5916 5916 5909 5924
5768 5767 5767 5766 5767 5768 5770 5771 5773 5776 5779 5782 5786 5788 5795 5798 5804 5810 5815 5820 5824 5828 5833 5837 5842 5846 5850 5855 5862 5868 5868 5873 5874 5875 5876 5882 5886 5895 5902 5907 5905 5904 5907 5910 5916 5919 5921
5756 5755 5755 5755 5756 5757 5759 5761 5763 5766 5769 5773 5777 5780 5788 5790 5795 5800 5805 5811 5816 5821 5826 5830 5835 5840 5844 5847 5853 5861 5865 5868 5870 5870 5872 5877 5883 5888 5895 5901 5905 5902 5903 5906 5909 5913 5916
5743 5742 5742 5743 5744 5745 5747 5750 5752 5755 5758 5763 5767 5772 5773 5780 5787 5792 5798 5804 5808 5814 5819 5823 5827 5832 5836 5843 5848 5855 5860 5865 5864 5861 5867 5871 5877 5884 5888 5893 5900 5902 5901 5900 5901 5903 5906
5732 5732 5731 5732 5733 5734 5736 5739 5741 5745 5748 5751 5755 5757 5760 5773 5778 5782 5789 5794 5800 5806 5811 5816 5820 5825 5831 5837 5846 5854 5855 5860 5858 5858 5862 5867 5872 5879 5883 5889 5893 5895 5899 5900 5900 5900 5903
5724 5723 5723 5723 5724 5725 5727 5730 5732 5735 5738 5741 5746 5752 5757 5763 5768 5775 5781 5787 5793 5798 5803 5808 5813 5819 5825 5832 5837 5837 5843 5852 5854 5854 5857 5862 5866 5872 5878 5884 5887 5889 5892 5895 5898 5900 5902
5718 5717 5717 5717 5717 5718 5720 5722 5725 5728 5730 5734 5738 5741 5746 5753 5759 5765 5771 5778 5784 5790 5796 5801 5806 5812 5819 5820 5827 5833 5840 5846 5850 5851 5854 5858 5864 5869 5875 5881 5882 5886 5889 5890 5894 5892 5892
5713 5712 5712 5711 5712 5712 5713 5715 5717 5720 5723 5726 5729 5733 5738 5744 5749 5753 5760 5768 5774 5780 5787 5792 5798 5803 5807 5815 5822 5829 5836 5840 5844 5849 5853 5859 5864 5867 5871 5874 5877 5872 5869 5882 5884 5882 5886
5708 5707 5706 5706 5706 5706 5707 5708 5710 5712 5715 5718 5721 5725 5729 5734 5735 5742 5750 5756 5764 5771 5777 5783 5788 5794 5802 5810 5817 5821 5828 5836 5840 5844 5848 5851 5853 5861 5866 5869 5870 5859 5869 5876 5877 5875 5878
5700 5699 5698 5697 5697 5698 5698 5699 5701 5703 5706 5709 5712 5715 5720 5724 5728 5736 5739 5747 5753 5758 5767 5776 5782 5791 5798 5806 5811 5817 5825 5833 5837 5840 5843 5844 5846 5852 5854 5859 5854 5857 5858 5866 5870 5870 5872
5692 5690 5689 5689 5688 5688 5689 5690 5691 5693 5695 5698 5701 5705 5709 5712 5717 5725 5731 5739 5747 5751 5759 5764 5773 5782 5791 5798 5805 5814 5823 5829 5833 5837 5838 5842 5846 5847 5850 5850 5847 5848 5855 5857 5859 5862 5865
5686 5684 5683 5681 5680 5680 5680 5680 5681 5682 5684 5687 5690 5693 5697 5702 5709 5718 5725 5732 5738 5748 5755 5760 5766 5774 5780 5790 5800 5810 5819 5818 5827 5822 5830 5830 5833 5838 5841 5840 5843 5846 5848 5850 5851 5855 5857
Wind_Speed
19 20 20 20 19 18 16 14 13 14 13 11 11 15 18 17 18 19 17 15 12 11 9 9 10 8 9 10 10 12 13 13 11 10 10 8 8 4 20 12 11 0 3 4 5 5 7
20 21 22 22 22 23 21 19 17 16 15 13 11 15 21 19 20 20 20 16 15 12 10 9 9 8 8 8 8 10 12 12 12 12 8 8 6 11 15 8 11 4 4 2 1 1 5
21 21 22 22 23 23 23 23 21 19 18 15 13 14 20 19 21 21 21 20 17 15 13 12 10 9 8 9 8 7 8 9 10 10 8 9 7 5 8 11 7 4 6 9 5 7 7
21 22 23 23 23 23 23 22 22 21 20 19 17 17 18 19 22 22 21 20 20 18 16 15 14 12 9 9 7 7 7 7 6 7 7 6 7 5 8 6 6 8 2 14 4 6 5
24 25 24 24 25 25 24 24 23 22 22 21 20 20 20 20 23 23 22 21 20 20 19 18 16 15 13 11 10 8 6 6 6 5 5 4 6 4 3 3 4 6 3 3 6 12 8
24 25 26 27 26 26 26 26 25 25 24 24 22 22 22 22 23 23 24 23 23 22 22 20 19 18 17 17 14 11 8 8 7 6 5 5 6 8 6 3 3 5 2 6 6 8 3
26 26 25 26 27 29 28 28 27 28 27 27 26 24 24 24 24 24 25 26 26 26 23 23 22 21 18 18 15 16 14 13 11 9 7 8 9 3 13 7 8 6 1 3 10 12 5
26 26 27 28 27 27 28 29 30 30 30 30 29 29 28 27 27 27 28 28 25 25 24 25 23 24 21 19 21 20 18 16 14 12 14 13 10 10 17 13 10 9 11 2 10 11 7
20 26 28 27 28 29 29 28 28 29 31 33 33 32 31 31 30 30 29 30 28 29 28 28 26 27 25 25 25 23 23 20 18 18 16 15 10 12 14 17 14 8 9 12 10 11 9
18 19 22 28 29 28 29 29 29 29 30 30 32 33 34 34 34 34 34 32 32 31 32 31 30 29 30 26 28 26 24 24 23 22 20 18 15 17 24 9 9 6 23 16 19 11 11
20 20 20 22 23 30 29 29 29 29 29 30 30 30 32 33 32 36 30 33 33 34 32 36 35 35 32 30 30 29 26 28 27 26 25 21 22 24 20 22 19 17 25 17 16 13 15
19 20 21 21 21 22 29 29 29 30 30 29 29 29 29 30 33 31 32 30 29 31 30 35 38 31 32 30 32 33 31 30 29 29 30 28 23 25 22 28 20 19 22 21 20 11 10
20 21 21 22 22 23 24 26 32 30 30 30 29 29 29 29 27 29 32 31 31 32 28 31 35 27 28 27 28 31 30 30 32 31 31 30 30 24 25 27 15 18 20 13 15 17 15
20 20 21 22 24 25 25 25 26 31 32 30 30 28 29 30 28 27 30 33 35 27 27 12 31 26 24 25 25 27 30 26 30 31 29 31 29 28 31 28 25 24 18 18 14 19 19
26 25 23 22 22 26 27 28 27 28 29 33 31 30 29 30 30 29 29 32 27 23 11 23 18 23 23 24 26 27 29 25 27 28 30 24 22 21 24 25 22 18 18 22 21 25 16
29 30 30 29 25 23 24 29 29 29 29 30 32 32 32 31 32 33 31 25 24 28 23 22 26 20 18 21 24 27 29 24 27 25 27 24 19 21 23 22 25 20 30 33 20 19 27
29 29 30 31 31 30 27 25 30 30 30 31 31 34 32 34 34 35 31 26 27 31 32 31 28 19 16 17 21 23 23 22 22 24 25 29 22 16 19 31 22 20 33 26 17 23 25
29 30 31 32 31 32 31 30 27 31 32 31 32 33 33 35 34 33 32 31 31 32 31 29 30 29 25 19 20 23 23 23 19 21 27 28 26 18 21 24 23 25 18 20 12 24 13
32 32 31 31 33 32 31 32 32 31 31 34 33 36 32 36 35 33 33 33 34 33 31 29 29 29 29 25 24 20 23 21 22 22 23 26 35 24 21 21 24 20 27 23 18 19 18
34 33 32 31 32 32 33 33 33 33 33 33 36 37 31 35 35 35 35 35 34 34 34 31 30 29 30 31 25 17 21 19 22 30 25 28 27 28 24 19 17 19 17 21 25 25 27
35 34 33 31 31 31 33 33 33 34 34 34 35 35 38 38 35 36 34 32 34 34 33 34 34 33 32 27 25 18 16 17 27 35 23 29 28 24 25 26 18 22 20 19 22 29 26
28 28 27 27 26 28 29 29 30 32 32 33 36 42 43 35 37 38 36 36 35 35 34 33 36 34 29 27 15 14 20 20 27 28 23 22 26 25 23 23 20 19 18 19 20 19 35
22 22 21 21 21 22 23 24 26 28 30 32 34 34 35 35 37 37 36 36 35 35 36 34 36 32 28 27 24 32 32 24 24 24 24 22 22 24 22 21 22 24 22 22 18 19 15
18 17 18 19 19 20 21 22 24 25 26 28 28 31 34 35 38 38 37 37 37 36 37 33 34 35 30 36 40 37 29 20 21 19 19 22 19 19 18 14 21 18 15 21 16 21 23
16 17 17 15 16 17 19 21 22 25 26 27 28 28 30 33 38 40 42 41 39 39 40 36 32 39 41 37 38 37 37 31 17 19 12 13 15 16 19 19 15 17 27 20 26 32 32
17 18 19 20 20 20 19 20 22 24 26 27 28 29 30 32 39 44 45 45 44 40 43 44 45 39 39 35 34 39 38 29 26 32 28 20 22 23 23 25 25 31 24 28 24 28 28
24 23 21 21 22 23 24 24 25 27 28 29 31 32 33 34 37 37 44 44 48 47 44 42 41 36 31 33 32 32 27 21 23 23 34 28 25 17 20 28 26 39 31 31 28 33 27
19 19 20 21 21 21 23 25 25 27 28 29 31 33 35 37 41 39 39 42 45 47 46 43 41 38 34 37 36 24 20 22 20 20 27 28 36 33 28 23 29 26 17 20 26 27 27
16 16 17 19 20 21 22 23 24 26 28 31 33 34 35 37 41 38 38 38 41 41 44 46 44 39 41 40 39 28 23 26 30 31 38 36 30 36 38 38 39 34 37 36 35 35 37
Wind_Direction
236 236 236 238 240 243 246 249 246 242 240 241 251 233 211 205 196 186 188 182 181 171 167 158 152 148 137 127 116 114 114 102 105 111 136 114 68 0 87 111 186 209 114 117 122 127 92
243 241 242 242 242 244 248 252 251 247 245 244 250 226 208 206 204 196 193 197 194 192 184 186 176 168 156 142 132 121 119 121 116 103 135 115 87 98 76 73 28 124 256 20 118 135 79
248 247 247 246 245 244 242 245 245 241 241 240 234 214 207 212 207 208 202 201 207 205 200 199 199 199 189 178 163 148 136 129 131 135 124 107 108 90 114 93 62 102 109 30 35 7 40
253 251 249 249 247 245 244 243 240 237 236 236 227 214 212 217 214 212 214 208 206 210 211 209 211 208 199 213 192 176 164 162 158 151 149 127 135 178 174 104 87 21 240 194 0 32 30
256 254 251 249 249 248 246 245 243 241 239 235 230 225 223 220 217 217 215 219 218 214 216 218 219 217 209 223 221 205 199 199 184 181 181 171 159 197 165 138 143 217 70 351 61 344 317
256 254 253 251 249 248 248 247 245 243 240 237 233 229 228 224 220 220 221 222 225 224 223 222 223 224 215 222 227 230 219 227 225 213 202 207 221 214 202 269 53 264 46 52 330 343 327
256 255 253 252 250 249 247 247 247 245 244 243 240 237 233 230 229 227 228 229 229 230 229 229 225 229 220 229 237 238 233 230 239 239 230 224 228 295 308 251 262 227 286 9 329 291 293
256 256 255 253 252 250 248 247 246 246 246 245 243 242 241 238 234 233 234 234 234 235 234 238 236 236 231 232 235 241 242 244 238 237 243 246 240 189 219 246 248 221 259 249 266 271 270
261 255 254 254 253 251 250 249 247 246 246 246 246 244 243 242 241 240 238 239 238 239 238 241 241 242 241 238 241 240 244 244 242 237 238 246 255 289 248 252 228 232 290 272 250 281 259
268 265 259 252 250 251 250 249 248 248 248 246 245 245 246 245 243 242 242 243 244 245 244 244 242 244 245 244 245 246 245 247 246 245 239 236 232 211 278 263 270 253 257 241 258 293 267
269 268 267 260 255 247 247 247 246 247 247 247 246 244 244 243 242 244 246 243 243 243 243 242 241 245 247 248 248 246 243 243 244 247 245 240 227 225 225 237 244 241 260 268 270 275 277
269 267 265 265 261 256 247 245 245 244 245 246 245 243 242 241 239 238 237 239 238 239 242 247 250 244 246 246 247 250 246 243 239 238 241 242 232 235 220 265 265 241 265 268 265 288 284
270 267 264 262 260 258 254 248 243 243 243 243 244 243 241 241 241 237 236 235 234 239 230 249 251 248 246 244 240 245 248 243 247 245 243 242 238 231 237 231 234 235 256 264 276 272 268
271 271 270 265 260 256 253 251 247 242 241 240 240 240 238 238 235 236 234 231 233 235 232 243 259 250 247 243 239 242 248 241 238 234 236 238 239 227 244 252 242 227 237 252 241 269 255
269 267 269 271 269 259 254 250 246 243 242 238 238 237 235 234 232 231 231 232 232 223 228 225 255 253 246 243 240 240 246 241 241 235 232 225 238 246 241 258 241 230 240 255 230 265 298
272 268 265 263 266 269 262 251 246 242 241 239 236 235 232 232 229 228 229 229 219 213 214 191 227 241 239 247 238 240 245 240 238 231 224 201 225 240 250 253 255 185 227 233 194 243 272
275 272 267 262 259 260 262 259 248 242 240 238 237 234 230 230 230 229 228 224 221 224 224 224 224 211 236 224 241 233 237 239 240 231 222 202 193 220 228 235 236 223 230 241 206 227 230
279 273 269 267 264 259 256 254 251 243 239 238 236 235 228 230 230 229 226 225 224 225 232 231 228 223 197 224 230 232 229 236 237 234 222 211 196 220 225 241 237 222 237 250 237 275 235
280 275 271 267 263 260 258 254 250 244 239 237 235 236 227 230 229 228 225 224 225 226 230 226 224 224 216 215 210 225 245 214 232 224 222 211 198 206 222 226 246 242 223 226 248 237 258
280 275 270 266 261 258 254 252 250 246 240 236 234 236 228 229 227 226 223 222 225 227 228 228 222 223 222 226 204 215 225 211 228 228 231 205 215 216 214 211 245 252 267 240 229 232 236
277 273 268 263 259 255 251 250 247 245 241 235 232 231 229 225 225 227 225 227 222 224 226 226 222 220 225 222 214 209 226 207 217 232 230 207 215 215 224 199 218 252 250 270 251 224 241
283 276 268 261 255 251 249 245 244 242 239 234 228 227 233 228 221 223 222 222 220 220 224 223 223 224 225 212 190 207 215 205 234 242 225 221 211 213 216 219 222 242 226 234 267 258 232
285 278 268 259 253 249 246 243 241 239 237 235 236 234 231 223 223 223 222 221 222 219 221 224 224 224 214 205 185 200 205 196 242 248 230 217 213 204 217 225 227 235 238 240 240 250 262
288 281 273 262 254 249 245 242 240 238 235 234 232 227 224 221 222 221 220 220 220 219 222 221 223 218 207 207 200 198 194 187 211 233 232 217 209 202 204 221 235 247 249 246 226 230 224
290 286 281 272 258 252 250 245 241 238 235 233 231 229 226 221 220 217 217 216 218 217 220 217 216 220 217 214 206 203 195 198 193 179 199 197 203 214 210 229 230 213 203 184 214 228 229
291 288 278 271 270 264 257 251 247 240 236 234 233 231 227 220 219 221 218 214 213 216 218 219 224 219 215 218 210 207 202 210 216 201 186 206 211 207 208 225 217 228 207 202 207 228 229
289 290 282 275 269 264 261 257 252 247 242 238 234 232 229 225 226 225 221 217 216 215 216 219 227 224 221 213 211 209 205 207 221 220 214 204 198 214 220 200 232 233 215 204 212 228 245
294 288 284 280 273 266 260 256 252 248 245 242 238 234 231 229 229 222 221 220 220 221 219 211 219 216 212 208 203 197 197 214 213 223 233 232 218 209 209 234 253 265 252 249 253 240 239
308 300 294 289 281 273 266 260 253 250 247 244 242 238 234 231 233 225 225 223 218 221 225 224 216 207 208 205 203 179 190 223 197 232 205 210 201 216 220 222 226 233 245 247 250 253 255